Regional Weather Roundup
Issued by NWS

Home | Current Version | Previous Version | Graphics & Text | Print | Product List | Glossary On
Versions: 1 2 3 4 5 6 7 8 9 10 11 12 13 14 15 16 17 18 19 20 21 22 23 24 25 26 27 28 29 30 31 32 33 34 35 36 37 38 39 40 41 42 43 44 45 46 47 48 49 50
000
ASUS43 KMPX 010610
RWRMN
WEATHER ROUNDUP FOR MINNESOTA
NATIONAL WEATHER SERVICE TWIN CITIES/CHANHASSEN MN
100 AM CDT SAT AUG 01 2015


NOTE: "FAIR" INDICATES FEW OR NO CLOUDS BELOW 12,000 FEET WITH NO
SIGNIFICANT WEATHER AND/OR OBSTRUCTIONS TO VISIBILITY. N/A MEANS
CURRENT SKY AND/OR WEATHER CONDITIONS ARE NOT AVAILABLE.

MNZ060>063-068>070-010700-
   Twin Cities Metro

CITY           SKY/WX    TMP DP  RH WIND       PRES   REMARKS
TWIN CITIES    PTCLDY    72  58  61 SW5       30.00S
6HR MIN TEMP:  70; 6HR MAX TEMP:  80;

ST PAUL        PTCLDY    70  57  63 N3        30.00S
CRYSTAL        PTCLDY    69  58  67 CALM      29.99S
BLAINE         PTCLDY    68  59  73 CALM      30.00S
LAKEVILLE      PTCLDY    63  57  82 SW3       30.01F
EDEN PRAIRIE   PTCLDY    67  59  75 W5        30.00S
6HR MIN TEMP:  66; 6HR MAX TEMP:  81;

SOUTH ST PAUL  CLEAR     69  57  65 W3        29.99F
LAKE ELMO      MOCLDY    63  59  88 CALM      30.01S
$$
MNZ001>005-007-008-013>017-022>024-027-028-010700-
   Northwest Minnesota

CITY           SKY/WX    TMP DP  RH WIND       PRES   REMARKS
BEMIDJI        CLEAR     58  52  79 CALM      29.99S
HALLOCK        CLEAR     59  54  82 CALM      29.95S
ROSEAU         CLEAR     61  54  77 CALM      29.95S
WARROAD        CLEAR     61  55  82 W8        29.94F
THIEF RVR FALL CLEAR     57  54  88 CALM      29.98S
CROOKSTON      CLEAR     59  54  82 CALM      29.99R
FOSSTON        CLEAR     52  48  87 CALM      30.00S
DETROIT LAKES  CLEAR     63  55  77 CALM      30.03S
MOORHEAD       CLEAR     61  55  82 CALM      30.01S
PARK RAPIDS    CLEAR     58  52  80 CALM      30.01S
MAHNOMEN       FAIR      56  53  88 CALM      30.00S
$$
MNZ006-009>011-018-025>026-010700-
   North Central Minnesota

CITY           SKY/WX    TMP DP  RH WIND       PRES   REMARKS
BAUDETTE       CLEAR     56  49  77 W5        29.93F
FLAG ISLAND    CLEAR     64  54  68 W13       29.91S
INTL FALLS     CLEAR     55  51  86 CALM      29.92S
6HR MIN TEMP:  54; 6HR MAX TEMP:  73;

WASKISH        PTCLDY    66  57  72 W8        29.95S
BIG FORK       CLEAR     54  48  82 CALM      29.97R
LONGVILLE      CLEAR     54  54 100 CALM      29.99S
GRAND RAPIDS   CLEAR     59  50  72 SW6       29.97F
CRANE LAKE     CLEAR     52  52 100 CALM      29.94S
ORR            CLEAR     61  48  63 CALM      29.92R
COOK           CLEAR     54  48  82 CALM      29.94S
WALKER         FAIR      55  52  88 CALM      29.99S
$$
MNZ012-019>021-037-010700-
   Northeast Minnesota

CITY           SKY/WX    TMP DP  RH WIND       PRES   REMARKS
DULUTH         CLEAR     59  49  69 W8        29.95S
6HR MIN TEMP:  58; 6HR MAX TEMP:  76;

ELY            PTCLDY    55  54  94 CALM      29.93F
HIBBING        CLEAR     62  47  57 W6        29.95S
EVELETH        CLEAR     52  46  82 CALM      29.96S
DULUTH HARBOR  CLEAR     66  54  63 W12       29.94S
TWO HARBORS    CLEAR     61  52  72 W3        29.92R
SILVER BAY     CLEAR     59  52  77 CALM      29.90S
GRAND MARAIS     N/A     65  54  67 NW7       29.85R
G MARAIS ARPRT   N/A     57  52  82 W5        29.90S
$$
MNZ029>031-032-039>041-046>048-054>057-064-010700-
   West Central Minnesota

CITY           SKY/WX    TMP DP  RH WIND       PRES   REMARKS
FERGUS FALLS   CLEAR     64  55  72 CALM      30.01S
WHEATON        CLEAR     61  57  88 NE3       30.02S
MORRIS         CLEAR     63  61  94 E3        30.00S
ALEXANDRIA     PTCLDY    66  61  84 W3        30.03S
ELBOW LAKE     FAIR      62  60  91 S5        30.01S
WADENA         PTCLDY    59  54  82 CALM      30.01S
GLENWOOD       PTCLDY    64  61  88 NW3       30.03S
APPLETON       CLEAR     64  57  77 CALM      29.99S
BENSON         CLEAR     61  57  88 E3        30.00S
ORTONVILLE     CLEAR     68  61  77 W8        29.99F
MADISON        CLEAR     64  61  88 W5        30.00S
WILLMAR        FAIR      61  59  94 CALM      30.02S
$$
MNZ033>034-036-042>043-049>051-058-059-010700-
   Central Minnesota

CITY           SKY/WX    TMP DP  RH WIND       PRES   REMARKS
ST CLOUD       MOCLDY    64  59  83 SW3       30.00S
6HR MIN TEMP:  63; 6HR MAX TEMP:  79;

SAUK CENTRE    MOCLDY    63  60  90 CALM      30.02S
PAYNESVILLE    PTCLDY    58  57  96 CALM      30.02S
AITKIN         CLEAR     54  48  82 CALM      29.98S
PINE RIVER     CLEAR     54  50  87 CALM      30.04S
BRAINERD       CLEAR     57  54  89 CALM      30.01S
STAPLES        PTCLDY    61  55  82 W3        30.01S
LONG PRAIRIE   FAIR      59  57  94 S3        30.02S
LITTLE FALLS   MOCLDY    61  55  82 CALM      30.01S
LITCHFIELD     PTCLDY    68  61  77 CALM      30.02S
BUFFALO        PTCLDY    67  59  75 CALM      30.02S
MAPLE LAKE     PTCLDY    63  61  94 CALM      30.02S
$$
MNZ037-044-045-052-053-010700-
   East Central Minnesota

CITY           SKY/WX    TMP DP  RH WIND       PRES   REMARKS
PRINCETON      PTCLDY    63  57  82 CALM      30.00S
MORA           PTCLDY    55  52  88 CALM      30.01S
CAMBRIDGE      PTCLDY    66  55  68 CALM      29.98S
RUSH CITY      MOCLDY    59  55  87 CALM      29.99S
MOOSE LAKE     MOCLDY    54  52  94 W5        29.97S
HINCKLEY       FAIR      54  54 100 CALM      29.99S
CLOQUET        CLEAR     59  46  63 W5        29.97R
MCGREGOR       CLEAR     59  52  77 SW3       29.99S
$$
MNZ071>073-080-081-089-090-097-098-010700-
   Southwest Minnesota

CITY           SKY/WX    TMP DP  RH WIND       PRES   REMARKS
MONTEVIDEO     CLEAR     66  54  63 W6        30.01S
GRANITE FALLS  CLEAR     63  60  91 S6        30.02S
CANBY          CLEAR     69  58  67 SW9       30.02S
MARSHALL       CLEAR     70  57  64 SW14      30.02F
REDWOOD FALLS  CLEAR     65  59  81 S5        30.01S
OLIVIA         CLEAR     63  55  77 CALM      30.00F
PIPESTONE      CLEAR     64  61  88 SW5       30.07S
WINDOM         CLEAR     66  61  82 SW7       30.05S
WORTHINGTON    CLEAR     68  57  68 SW9       30.06F
JACKSON        CLEAR     68  59  73 SW6       30.06F
TRACY          CLEAR     68  61  77 SW9       30.03S
SLAYTON        CLEAR     68  61  79 SW12      30.06S
$$
MNZ065>067-074>077-082>085-091>093-010700-
   South Central Minnesota

CITY           SKY/WX    TMP DP  RH WIND       PRES   REMARKS
MANKATO        PTCLDY    66  57  72 S5        30.03S
NEW ULM        CLEAR     64  59  82 S6        30.02S
ST JAMES       CLEAR     64  61  88 CALM      30.04S
FAIRMONT       CLEAR     64  54  68 S6        30.04S
GLENCOE        CLOUDY    64  61  91 CALM      30.01S
FARIBAULT      CLOUDY    66  61  82 CALM      30.03S
OWATONNA       MOCLDY    64  59  82 S3        30.04S
WASECA         PTCLDY    59  55  88 CALM      30.05S
ALBERT LEA     PTCLDY    64  63  94 SW5       30.05S
$$
MNZ078>079-086>088-094>096-010700-
   Southeast Minnesota

CITY           SKY/WX    TMP DP  RH WIND       PRES   REMARKS
ROCHESTER      PTCLDY    62  56  80 SW8       30.05S
6HR MIN TEMP:  60; 6HR MAX TEMP:  75;

RED WING       CLEAR     61  57  88 CALM      29.99F
STANTON        PTCLDY    64  58  81 S3        30.00S
DODGE CENTER   MOCLDY    61  57  88 W5        30.05S
WINONA         CLEAR     61  57  88 CALM      30.01S
AUSTIN         PTCLDY    64  61  88 CALM      30.05S
PRESTON        CLEAR     64  55  74 W8        30.05S
$$
ABBREVIATIONS USED IN REMARKS
   TC - TEMPERATURES IN CELSIUS
  WCI - WIND CHILL INDEX
   HX - HEAT INDEX
  VSB - VISIBILITY
$$



USA.gov is the U.S. government's official web portal to all federal, state and local government web resources and services.